sat.trackr.live / text

‹ back to catalog

STARLINK-32604

NORAD 62070 · 2024-217P

PAYLOAD ACTIVE UNKNOWN

§ Identity

Operator
Country
US
Launch date
2024-11-24
Launch site
AFWTR
Launch vehicle
Mass (kg)
RCS (m²)

Purposes: comms

External: N2YO · Heavens-Above · Gunter

§ Orbital elements

Epoch: 2026-09-21T12:19:41.532960Z

Period
93.85 min
Inclination
53.1599°
Eccentricity
0.0001371
Mean motion
15.34400162 rev/d
Perigee alt
461.8 km
Apogee alt
463.6 km
Semi-major
6,840.8 km
B*
3.8010e-4
RAAN
0.7161°
Arg perigee
88.5752°
Mean anomaly
271.5408°
Rev number
10,345

§ Raw data

STARLINK-326041 62070U 24217P   26264.51367515  .00012487  00000+0  38010-3 0  99902 62070  53.1599   0.7161 0001371  88.5752 271.5408 15.34400162103457

JSON: /api/v1/satellites/62070 · /tle

For live sub-satellite position, see the globe view (requires WebGL).

§ Visibility from observer

Set your observer location to see the next 7 days of passes ≥ 10°. The values pass through the URL so the page stays shareable.

No JS? Fill the form by hand. The geolocation button needs JavaScript.